Regional Weather Roundup
Issued by NWS

Home | Current Version | Previous Version | Graphics & Text | Print | Product List | Glossary On
Versions: 1 2 3 4 5 6 7 8 9 10 11 12 13 14 15 16 17 18 19 20 21 22 23 24 25 26 27 28 29 30 31 32 33 34 35 36 37 38 39 40 41 42 43 44 45 46 47 48 49 50
000
ASUS45 KABQ 271701
RWRNM
WEATHER ROUNDUP FOR NEW MEXICO
NATIONAL WEATHER SERVICE ALBUQUERQUE NM
1100 AM MDT MON APR 27 2015

NOTE: "FAIR" MEANS FEW OR NO CLOUDS BELOW 12,000 FEET AGL WITH NO
       SIGNIFICANT WEATHER OR OBSTRUCTIONS TO VISION.

      THIS PRODUCT IS RELEASED AS TWO VERSIONS.  ONE VERSION NEAR
      THE TOP OF THE HOUR CONTAINING PRELIMINARY DATA FROM ALBUQUERQUE
      AND OTHER STATIONS.  A FINAL VERSION WITH ADDITIONAL DATA IS
      ISSUED ABOUT 10 MINUTES AFTER THE HOUR.

NMZ501-503-504-510>518-271800-
NORTHWEST PLATEAU/NORTHCENTRAL MOUNTAINS

CITY           SKY/WX    TMP DP  RH WIND       PRES   REMARKS
FARMINGTON     SUNNY     55  40  56 SW6       30.07S
SANTA FE       CLOUDY    50  34  54 N14       30.05S
TAOS           PTSUNNY   46  30  53 E7        30.10S
ANGEL FIRE     SNOW      32  31  96 N14G21    30.11R VSB 1/2 WCI  22

$$
NMZ402-403-502-505>509-271800-
WESTCENTRAL MOUNTAINS/SOUTHWEST MOUNTAINS

CITY           SKY/WX    TMP DP  RH WIND       PRES   REMARKS
GALLUP         MOSUNNY   50  38  63 E5        30.10S
GRANTS         CLOUDY    49  37  64 CALM      30.11S
SILVER CITY      N/A     55  34  44 S5        30.03R

$$
NMZ407-409-411-412-271800-
SOUTHERN DESERTS

CITY           SKY/WX    TMP DP  RH WIND       PRES   REMARKS
DEMING         SUNNY     60  38  43 NE18      29.99R
ALAMOGORDO     MOSUNNY   63  34  34 N15       29.94S
T OR C         MOSUNNY   57  40  52 NE21G26   30.02R

$$
NMZ519>523-271800-
CENTRAL VALLEYS/CENTRAL HIGHLANDS

CITY           SKY/WX    TMP DP  RH WIND       PRES   REMARKS
ALBUQUERQUE    PTSUNNY   53  39  59 VRB6      30.05S
DOUBLE EAGLE   PTSUNNY   52  39  62 N6        30.08R
MORIARTY ARPT  CLOUDY    47  38  70 NW5       30.08R
CLINES CORNERS LGT RAIN  42  38  85 NE17G23   30.05R
BELEN          CLOUDY    52  37  56 N6        30.07R
SOCORRO        NOT AVBL

$$
NMZ524>526-539-540-271800-
SOUTHCENTRAL MOUNTAINS

CITY           SKY/WX    TMP DP  RH WIND       PRES   REMARKS
RUIDOSO        NOT AVBL

$$
NMZ527>531-271800-
NORTHEAST HIGHLANDS/NORTHEAST PLAINS

CITY           SKY/WX    TMP DP  RH WIND       PRES   REMARKS
LAS VEGAS      LGT RAIN  39  36  89 N28G36    30.07R WCI  28
RATON          PTSUNNY   44  33  65 N28G37    30.09F
CLAYTON        LGT RAIN  38  35  89 N33       30.07R FOG     WCI  25

$$
NMZ532>537-271800-
EASTCENTRAL PLAINS

CITY           SKY/WX    TMP DP  RH WIND       PRES   REMARKS
TUCUMCARI      RAIN      45  41  86 N23       30.01R FOG
CANNON AFB     NOT AVBL
CLOVIS AIRPORT CLOUDY    45  39  81 N29       29.96R

$$
NMZ028-029-538-271800-
SOUTHEAST PLAINS

CITY           SKY/WX    TMP DP  RH WIND       PRES   REMARKS
ROSWELL        CLOUDY    55  38  52 N23       29.96R
ARTESIA        PTSUNNY   57  41  54 N26G32    29.96R
CARLSBAD       PTSUNNY   63  43  48 N20G25    29.91R
HOBBS          PTSUNNY   57  45  62 N14G20    29.90R


$$


USA.gov is the U.S. government's official web portal to all federal, state and local government web resources and services.